Regional Weather Roundup
Issued by NWS Upton, NY

Current Version | Previous Version | Text Only | Print | Product List | Glossary Off
Versions: 1 2 3 4 5 6 7 8 9 10 11 12 13 14 15 16 17 18 19 20 21 22 23 24 25 26 27
000 ASUS41 KOKX 251008 RWROKX REGIONAL WEATHER ROUNDUP NATIONAL WEATHER SERVICE NEW YORK NY 600 AM EDT SAT MAR 25 2017 NOTE: "FAIR" INDICATES FEW OR NO CLOUDS BELOW 12,000 FEET WITH NO SIGNIFICANT WEATHER AND/OR OBSTRUCTIONS TO VISIBILITY. NYZ071-072-176-178-NJZ106-104-251100- NEW YORK CITY METRO AREA CITY SKY/WX TMP DP RH WIND PRES REMARKS Central Park PTCLDY 54 37 52 W8G18 30.09R Wall St Helipt MOSUNNY 50 37 62 W8 30.10S LaGuardia APRT CLOUDY 54 37 52 S7 30.08R Kennedy INTL CLOUDY 51 40 65 W15 30.10R Breezy Point N/A 48 N/A N/A W9 N/A Newark/Liberty CLOUDY 50 36 58 SW10 30.09R Teterboro CLOUDY 47 36 65 CALM 30.08R $$ NYZ177-179-078>081-251100- LONG ISLAND NEW YORK CITY SKY/WX TMP DP RH WIND PRES REMARKS Jones Beach N/A 45 N/A N/A W5 N/A Matinecock PT N/A 50 N/A N/A SW5 N/A Farmingdale CLOUDY 45 39 79 W6 30.09R MacArthur/ISP MOCLDY 43 39 86 CALM 30.10R Shirley CLOUDY 42 40 92 CALM 30.11R Westhampton PTCLDY 41 37 86 W3 30.11R East Hampton N/A 41 38 88 CALM 30.09R Montauk N/A 43 38 82 CALM 30.11R $$ NYZ052-065-067-251100- HUDSON VALLEY CITY SKY/WX TMP DP RH WIND PRES REMARKS White Plains MOCLDY 43 33 68 CALM 30.08R Newburgh MOCLDY 41 36 81 VRB5 30.11R Montgomery CLOUDY 38 34 85 CALM 30.11R Poughkeepsie CLOUDY 38 33 82 CALM 30.11R Albany LGT RAIN 38 35 89 N5 30.15R FOG WCI 34 $$ NJZ001-105-106-008-010-013-015-019>022-104-251100- NEW JERSEY CITY SKY/WX TMP DP RH WIND PRES REMARKS Newark/Liberty CLOUDY 50 36 58 SW10 30.09R Teterboro CLOUDY 47 36 65 CALM 30.08R Caldwell MOCLDY 50 36 58 SW3 30.09R Somerville CLOUDY 41 35 79 CALM 30.09R Linden N/A 49 35 58 CALM 30.10R Sussex CLOUDY 37 34 89 CALM 30.09R Andover N/A 41 34 76 CALM 30.08R Trenton CLOUDY 51 41 68 W3 30.10S Millville PTCLDY 55 48 77 SW6 30.15R Atlantic City CLOUDY 58 46 64 SW10 30.14R Wrightstown PTCLDY 51 45 77 CALM 30.09R Toms River PTCLDY 53 45 74 SW8 30.13R Belmar CLOUDY 56 44 64 W12 30.11R $$ PAZ047>061-062-071-251100- EASTERN PENNSYLVANIA CITY SKY/WX TMP DP RH WIND PRES REMARKS Philadelphia CLOUDY 52 43 71 SW12 30.13S Allentown CLOUDY 42 35 76 CALM 30.10R Scranton CLOUDY 44 38 79 SE3 30.10R $$ CTZ002-004>006-009-010-012-RIZ004-006-007-MAZ004-011-015-251100- SOUTHERN NEW ENGLAND IN CT CITY SKY/WX TMP DP RH WIND PRES REMARKS Bradley INTL LGT RAIN 38 32 79 S6 30.10R WCI 33 Hartford CLOUDY 38 33 82 CALM 30.11R Danbury CLOUDY 35 32 88 CALM 30.11R Wtrbury/Oxford MOCLDY 39 30 70 N3 30.10R Bridgeport CLOUDY 39 33 79 CALM 30.10R Meriden CLOUDY 38 33 82 CALM 30.11R New Haven MOCLDY 39 34 82 N3 30.10R Chester NOT AVBL Groton MOCLDY 38 35 89 NE3 30.09R Wilimantic PTCLDY 36 32 85 CALM 30.11R IN RI CITY SKY/WX TMP DP RH WIND PRES REMARKS Providence CLOUDY 41 34 76 SW3 30.10R Block Island CLOUDY 42 40 92 W9 30.10R Westerly CLOUDY 39 36 89 CALM 30.10R IN MA CITY SKY/WX TMP DP RH WIND PRES REMARKS Boston CLOUDY 41 34 76 N3 30.10R Worcester CLOUDY 42 32 67 CALM 30.08R Westfield LGT RAIN 34 32 92 CALM 30.08R Provincetown LGT RAIN 40 36 86 N5 30.10R Nantucket CLOUDY 43 40 89 W13 30.10R $$ ANZ330-335-338-340-345-350-353-355-251100- COASTAL MARINE OBSERVATIONS STATION/POSITION TIME SKY/WX TEMP WIND PRES VSBY WAVE AIR SEA DIR/SP/G HT/PER (UTC) (F) (DEG/KT/KT) (MB) (MI) (FT/S) NY HARB ENTRANCE 0850 46 42 230/ 6/ 6 1018.8 4/ 6 20 S FIRE ISLAND 0850 44 40 220/ 16/ 17 1018.1 6/ 7 GREAT SOUTH BAY NOT AVBL 23 SSW MONTAUK P 0850 45 43 1018.4 6/ 8 15 E BARNEGAT LI 0930 42 N/A 6/ 7 HUDSON CANYON 0850 49 45 220/ 17/ 21 1020.1 8/ 7 KINGS POINT 0942 51 39 1018.2 EXECUTION ROCKS NOT AVBL CENTRAL LI SOUND 0915 40 340/ 4/ 6 N/A 1 EASTERN LI SOUND NOT AVBL ROBBINS REEF 0942 51 260/ 12/ 14 1018.9 $$ >>>>>>>>>>>>>>>>>>>>>>>>>>>> KEY <<<<<<<<<<<<<<<<<<<<<<<<<<< > < > SKY/WX - Sky Condition/Present Weather < > TMP - Temperature in Fahrenheit < > DP - Dew Point in Fahrenheit < > RH - Relative Humidity in Percent < > WIND - Direction (from) and Speed in MPH < > PRES - Mean Sea Level Pressure (inches of Hg) < > WCI - Wind Chill Index < > VSB - VISIBILITY IN MILES < > HX - HEAT INDEX < > TC - TEMPERATURE IN CELSIUS < > VRB - VARIABLE WIND DIRECTION < > < >>>>>>>>>>>>>>>>>>>>>>>>>>>> KEY <<<<<<<<<<<<<<<<<<<<<<<<<<<

USA.gov is the U.S. government's official web portal to all federal, state and local government web resources and services.